星链-5116 (STARLINK-5116 )

导读 | 豆包AI

STARLINK-5116是美国SpaceX公司星链星座的卫星,于2022年10月5日发射。星链项目旨在通过低轨卫星为全球提供高速互联网服务,该卫星采用平板设计,搭载Ku/Ka波段通信载荷,配备氪工质霍尔推进器,具备自主避撞能力,设计寿命约5至7年,退役后将再入大气层焚毁,目前服务于星链星座的全球宽带通信网络。

Basic Information
目录编号:
54014
目录名称:
STARLINK-5116
国际标识:
2022-125BC
轨道中心:
EARTH
卫星名称:
星链-5116
卫星全名:
星链-5116 (STARLINK-5116 )
卫星状态:
已陨落 最后检测时间 2024-05-25
发射日期:
2022-10-05 UTC
国别 :
美国 (US)
星等 :
--
Orbit Information
数据来源 国际轨道数据
星历时间: 2024-05-25T11:18:17+0800
轨道信息已过期704天
半长轴: 6555.969km
偏心率: 0.0004638
轨道倾角: 53.195°
近地点辐角 278.999°
升交点赤经 225.426°
平近点角 184.158°
近地点: 174.793km
远地点: 180.875km
周期: 88.047分钟
每日圈数: 16.354884
Detailed Information
固有亮度:
5
最大亮度:
2.5
卫星平台:
Starlink v1.5
覆盖范围:
全球
运营商:
太空探索技术公司
运营商所在国:
美国
制造商(研发单位):
太空探索技术公司
制造商所在国:
美国
使用方式:
暂无
Satellite Introduction
星链(Starlink)计划是由太空探索技术公司(SpaceX)提出的一个巨型低轨卫星互联网星座项目,计划在2019年至2024年间在太空搭建由约1.2万颗卫星组成的“星链”网络,其中1584颗将部署在地球上空550千米处的近地轨道,并从2020年开始工作。该卫星已陨落。